Time,TemperatureF,DewpointF,PressureIn,WindDirection,WindDirectionDegrees,WindSpeedMPH,WindSpeedGustMPH,Humidity,HourlyPrecipIn,Conditions,Clouds,dailyrainin,SolarRadiationWatts/m^2,SoftwareType,DateUTC
2013-03-15 00:00:00,55.2,37.4,30.11,ESE,110,4.1,5.8,51,0.00,CLR,,0.00,0.0,WeatherDisplay:10.37,2013-03-15 07:00:00,
2013-03-15 00:05:00,55.5,37.1,30.11,East,91,4.7,5.8,50,0.00,CLR,,0.00,0.0,WeatherDisplay:10.37,2013-03-15 07:05:00,
2013-03-15 00:10:00,55.7,36.8,30.11,East,96,5.0,5.8,49,0.00,CLR,,0.00,0.0,WeatherDisplay:10.37,2013-03-15 07:10:00,
2013-03-15 00:15:00,55.7,37.8,30.11,ESE,115,4.4,5.8,51,0.00,CLR,,0.00,0.0,WeatherDisplay:10.37,2013-03-15 07:15:00,
2013-03-15 00:20:00,55.5,37.7,30.11,ESE,111,5.5,6.9,51,0.00,CLR,,0.00,0.0,WeatherDisplay:10.37,2013-03-15 07:20:00,
2013-03-15 00:25:00,55.4,39.0,30.11,ESE,115,4.5,4.6,54,0.00,CLR,,0.00,0.0,WeatherDisplay:10.37,2013-03-15 07:25:00,
2013-03-15 00:30:00,55.4,39.0,30.11,ESE,110,3.0,3.5,54,0.00,CLR,,0.00,0.0,WeatherDisplay:10.37,2013-03-15 07:30:00,
2013-03-15 00:35:00,55.3,38.4,30.11,SE,124,2.6,3.5,53,0.00,CLR,,0.00,0.0,WeatherDisplay:10.37,2013-03-15 07:35:00,
2013-03-15 00:40:00,55.1,38.3,30.11,SE,143,3.3,3.5,53,0.00,CLR,,0.00,0.0,WeatherDisplay:10.37,2013-03-15 07:40:00,
2013-03-15 00:45:00,54.9,38.1,30.10,SE,143,2.6,3.5,53,0.00,CLR,,0.00,0.0,WeatherDisplay:10.37,2013-03-15 07:45:00,
2013-03-15 00:50:00,54.8,38.0,30.10,SE,143,0.4,1.1,53,0.00,CLR,,0.00,0.0,WeatherDisplay:10.37,2013-03-15 07:50:00,
2013-03-15 00:55:00,54.6,38.3,30.11,WNW,295,3.9,4.0,54,0.00,CLR,,0.00,0.0,WeatherDisplay:10.37,2013-03-15 07:55:00,
2013-03-15 01:00:00,54.4,37.6,30.11,WNW,303,3.2,3.5,53,0.00,CLR,,0.00,0.0,WeatherDisplay:10.37,2013-03-15 08:00:00,
2013-03-15 01:05:00,54.1,37.8,30.10,NW,317,3.1,3.5,54,0.00,CLR,,0.00,0.0,WeatherDisplay:10.37,2013-03-15 08:05:00,
2013-03-15 01:10:00,53.8,37.5,30.10,NW,316,1.1,2.3,54,0.00,CLR,,0.00,0.0,WeatherDisplay:10.37,2013-03-15 08:10:00,
2013-03-15 01:15:00,53.5,36.3,30.10,SSW,213,1.7,3.5,52,0.00,CLR,,0.00,0.0,WeatherDisplay:10.37,2013-03-15 08:15:00,
2013-03-15 01:20:00,53.2,36.0,30.10,South,175,3.8,5.0,52,0.00,CLR,,0.00,0.0,WeatherDisplay:10.37,2013-03-15 08:20:00,
2013-03-15 01:25:00,53.0,34.8,30.10,WSW,240,2.1,3.5,50,0.00,CLR,,0.00,0.0,WeatherDisplay:10.37,2013-03-15 08:25:00,
2013-03-15 01:30:00,53.2,33.5,30.10,WSW,253,6.3,7.0,47,0.00,CLR,,0.00,0.0,WeatherDisplay:10.37,2013-03-15 08:30:00,
2013-03-15 01:35:00,53.9,32.5,30.10,West,262,8.0,10.4,44,0.00,CLR,,0.00,0.0,WeatherDisplay:10.37,2013-03-15 08:35:00,
2013-03-15 01:40:00,54.8,32.1,30.10,WSW,255,6.8,9.2,42,0.00,CLR,,0.00,0.0,WeatherDisplay:10.37,2013-03-15 08:40:00,
2013-03-15 01:45:00,55.6,31.0,30.10,WSW,257,5.6,8.1,39,0.00,CLR,,0.00,0.0,WeatherDisplay:10.37,2013-03-15 08:45:00,
2013-03-15 01:50:00,56.1,30.2,30.10,WNW,282,6.2,8.1,37,0.00,CLR,,0.00,0.0,WeatherDisplay:10.37,2013-03-15 08:50:00,
2013-03-15 01:55:00,56.6,29.2,30.10,WNW,285,5.4,6.9,35,0.00,CLR,,0.00,0.0,WeatherDisplay:10.37,2013-03-15 08:55:00,
2013-03-15 02:00:00,56.9,29.5,30.11,West,264,3.3,4.0,35,0.00,CLR,,0.00,0.0,WeatherDisplay:10.37,2013-03-15 09:00:00,
2013-03-15 02:05:00,56.9,29.5,30.10,NW,311,3.4,3.5,35,0.00,CLR,,0.00,0.0,WeatherDisplay:10.37,2013-03-15 09:05:00,
2013-03-15 02:10:00,56.8,30.1,30.10,West,266,3.6,7.0,36,0.00,CLR,,0.00,0.0,WeatherDisplay:10.37,2013-03-15 09:10:00,
2013-03-15 02:15:00,56.7,32.6,30.10,WNW,288,4.3,6.9,40,0.00,CLR,,0.00,0.0,WeatherDisplay:10.37,2013-03-15 09:15:00,
2013-03-15 02:20:00,56.4,34.7,30.10,North,355,2.6,4.6,44,0.00,CLR,,0.00,0.0,WeatherDisplay:10.37,2013-03-15 09:20:00,
2013-03-15 02:25:00,55.9,34.8,30.11,WNW,285,0.7,3.5,45,0.00,CLR,,0.00,0.0,WeatherDisplay:10.37,2013-03-15 09:25:00,
2013-03-15 02:30:00,55.5,36.1,30.11,WNW,286,2.0,3.5,48,0.00,CLR,,0.00,0.0,WeatherDisplay:10.37,2013-03-15 09:30:00,
2013-03-15 02:35:00,55.0,36.2,30.11,WNW,284,3.3,3.5,49,0.00,CLR,,0.00,0.0,WeatherDisplay:10.37,2013-03-15 09:35:00,
2013-03-15 02:40:00,54.6,36.3,30.11,WNW,283,1.2,2.3,50,0.00,CLR,,0.00,0.0,WeatherDisplay:10.37,2013-03-15 09:40:00,
2013-03-15 02:45:00,54.2,36.5,30.11,NW,318,0.3,1.1,51,0.00,CLR,,0.00,0.0,WeatherDisplay:10.37,2013-03-15 09:45:00,
2013-03-15 02:50:00,53.6,40.5,30.11,SE,124,2.5,3.5,61,0.00,CLR,,0.00,0.0,WeatherDisplay:10.37,2013-03-15 09:50:00,
2013-03-15 02:55:00,53.0,37.7,30.11,SE,132,4.4,5.0,56,0.00,CLR,,0.00,0.0,WeatherDisplay:10.37,2013-03-15 09:55:00,
2013-03-15 03:00:00,52.3,42.0,30.10,SE,127,5.2,5.8,68,0.00,CLR,,0.00,0.0,WeatherDisplay:10.37,2013-03-15 10:00:00,
2013-03-15 03:05:00,51.8,43.1,30.10,ESE,118,6.0,6.9,72,0.00,CLR,,0.00,0.0,WeatherDisplay:10.37,2013-03-15 10:05:00,
2013-03-15 03:10:00,51.2,43.2,30.10,SE,132,5.7,6.9,74,0.00,CLR,,0.00,0.0,WeatherDisplay:10.37,2013-03-15 10:10:00,
2013-03-15 03:15:00,50.7,43.4,30.10,ESE,118,6.1,6.9,76,0.00,CLR,,0.00,0.0,WeatherDisplay:10.37,2013-03-15 10:15:00,
2013-03-15 03:20:00,50.4,43.8,30.10,SE,125,6.9,8.1,78,0.00,CLR,,0.00,0.0,WeatherDisplay:10.37,2013-03-15 10:20:00,
2013-03-15 03:25:00,50.0,44.1,30.10,ESE,122,6.1,7.0,80,0.00,CLR,,0.00,0.0,WeatherDisplay:10.37,2013-03-15 10:25:00,
2013-03-15 03:30:00,49.8,43.9,30.10,ESE,115,5.6,6.9,80,0.00,CLR,,0.00,0.0,WeatherDisplay:10.37,2013-03-15 10:30:00,
2013-03-15 03:35:00,49.7,43.8,30.10,ESE,108,6.1,6.9,80,0.00,CLR,,0.00,0.0,WeatherDisplay:10.37,2013-03-15 10:35:00,
2013-03-15 03:40:00,49.6,44.0,30.10,ESE,115,4.4,6.0,81,0.00,CLR,,0.00,0.0,WeatherDisplay:10.37,2013-03-15 10:40:00,
2013-03-15 03:45:00,49.6,44.0,30.09,ESE,108,5.6,6.9,81,0.00,CLR,,0.00,0.0,WeatherDisplay:10.37,2013-03-15 10:45:00,
2013-03-15 03:50:00,49.5,44.2,30.09,ESE,115,6.4,6.9,82,0.00,CLR,,0.00,0.0,WeatherDisplay:10.37,2013-03-15 10:50:00,
2013-03-15 03:55:00,49.5,44.2,30.09,ESE,120,6.1,7.0,82,0.00,CLR,,0.00,0.0,WeatherDisplay:10.37,2013-03-15 10:55:00,
2013-03-15 04:00:00,49.5,44.2,30.09,ESE,120,5.2,6.9,82,0.00,CLR,,0.00,0.0,WeatherDisplay:10.37,2013-03-15 11:00:00,
2013-03-15 04:05:00,49.5,44.2,30.09,ESE,114,3.8,4.6,82,0.00,CLR,,0.00,0.0,WeatherDisplay:10.37,2013-03-15 11:05:00,
2013-03-15 04:10:00,49.5,43.9,30.09,ESE,114,1.8,3.5,81,0.00,CLR,,0.00,0.0,WeatherDisplay:10.37,2013-03-15 11:10:00,
2013-03-15 04:15:00,49.6,44.0,30.09,ESE,114,2.6,3.5,81,0.00,CLR,,0.00,0.0,WeatherDisplay:10.37,2013-03-15 11:15:00,
2013-03-15 04:20:00,49.5,43.9,30.09,ESE,113,1.1,2.3,81,0.00,CLR,,0.00,0.0,WeatherDisplay:10.37,2013-03-15 11:20:00,
2013-03-15 04:25:00,49.5,44.2,30.09,ESE,114,1.6,2.3,82,0.00,CLR,,0.00,0.0,WeatherDisplay:10.37,2013-03-15 11:25:00,
2013-03-15 04:30:00,49.4,44.8,30.09,ESE,114,1.9,3.5,84,0.00,CLR,,0.00,0.0,WeatherDisplay:10.37,2013-03-15 11:30:00,
2013-03-15 04:35:00,49.3,44.7,30.09,ESE,114,2.6,3.5,84,0.00,CLR,,0.00,0.0,WeatherDisplay:10.37,2013-03-15 11:35:00,
2013-03-15 04:40:00,49.1,41.9,30.09,ESE,114,1.3,2.3,76,0.00,CLR,,0.00,0.0,WeatherDisplay:10.37,2013-03-15 11:40:00,
2013-03-15 04:45:00,49.2,39.5,30.09,ESE,114,0.9,2.0,69,0.00,CLR,,0.00,0.0,WeatherDisplay:10.37,2013-03-15 11:45:00,
2013-03-15 04:50:00,49.4,38.1,30.09,ESE,114,0.0,0.0,65,0.00,CLR,,0.00,0.0,WeatherDisplay:10.37,2013-03-15 11:50:00,
2013-03-15 04:55:00,49.6,38.3,30.09,ESE,114,0.0,0.0,65,0.00,CLR,,0.00,0.0,WeatherDisplay:10.37,2013-03-15 11:55:00,
2013-03-15 05:00:00,49.9,38.2,30.09,ESE,114,0.0,0.0,64,0.00,CLR,,0.00,0.0,WeatherDisplay:10.37,2013-03-15 12:00:00,
2013-03-15 05:05:00,50.2,38.9,30.09,ESE,114,0.0,0.0,65,0.00,CLR,,0.00,0.0,WeatherDisplay:10.37,2013-03-15 12:05:00,
2013-03-15 05:10:00,50.7,39.0,30.09,ESE,114,1.2,2.3,64,0.00,CLR,,0.00,0.0,WeatherDisplay:10.37,2013-03-15 12:10:00,
2013-03-15 05:15:00,51.0,38.8,30.09,ESE,114,0.7,1.1,63,0.00,CLR,,0.00,0.0,WeatherDisplay:10.37,2013-03-15 12:15:00,
2013-03-15 05:20:00,51.1,38.9,30.09,ESE,114,0.0,0.0,63,0.00,CLR,,0.00,0.0,WeatherDisplay:10.37,2013-03-15 12:20:00,
2013-03-15 05:25:00,51.1,38.9,30.09,ESE,114,2.4,3.5,63,0.00,CLR,,0.00,0.0,WeatherDisplay:10.37,2013-03-15 12:25:00,
2013-03-15 05:30:00,51.0,39.2,30.09,NW,324,2.7,3.5,64,0.00,CLR,,0.00,0.0,WeatherDisplay:10.37,2013-03-15 12:30:00,
2013-03-15 05:35:00,50.7,39.4,30.09,NW,324,2.2,3.5,65,0.00,CLR,,0.00,0.0,WeatherDisplay:10.37,2013-03-15 12:35:00,
2013-03-15 05:40:00,50.5,39.6,30.09,NW,324,1.1,2.3,66,0.00,CLR,,0.00,0.0,WeatherDisplay:10.37,2013-03-15 12:40:00,
2013-03-15 05:45:00,50.2,39.3,30.09,NW,324,0.0,0.0,66,0.00,CLR,,0.00,0.0,WeatherDisplay:10.37,2013-03-15 12:45:00,
2013-03-15 05:50:00,50.0,39.1,30.09,NW,324,1.2,2.3,66,0.00,CLR,,0.00,0.0,WeatherDisplay:10.37,2013-03-15 12:50:00,
2013-03-15 05:55:00,49.9,39.0,30.09,East,85,3.3,4.0,66,0.00,CLR,,0.00,0.0,WeatherDisplay:10.37,2013-03-15 12:55:00,
2013-03-15 06:00:00,49.9,39.0,30.09,ESE,103,4.0,4.6,66,0.00,CLR,,0.00,0.0,WeatherDisplay:10.37,2013-03-15 13:00:00,
2013-03-15 06:05:00,50.1,38.0,30.09,ESE,109,4.8,5.0,63,0.00,CLR,,0.00,0.0,WeatherDisplay:10.37,2013-03-15 13:05:00,
2013-03-15 06:10:00,50.6,38.1,30.09,ESE,115,4.9,6.0,62,0.00,CLR,,0.00,0.0,WeatherDisplay:10.37,2013-03-15 13:10:00,
2013-03-15 06:15:00,50.8,38.7,30.09,SE,145,6.2,7.0,63,0.00,CLR,,0.00,0.0,WeatherDisplay:10.37,2013-03-15 13:15:00,
2013-03-15 06:20:00,50.6,37.6,30.08,SE,132,5.7,6.9,61,0.00,CLR,,0.00,0.0,WeatherDisplay:10.37,2013-03-15 13:20:00,
2013-03-15 06:25:00,51.3,36.6,30.08,SE,136,3.6,5.8,57,0.00,CLR,,0.00,0.0,WeatherDisplay:10.37,2013-03-15 13:25:00,
2013-03-15 06:30:00,51.7,36.9,30.09,North,353,1.8,3.5,57,0.00,CLR,,0.00,0.0,WeatherDisplay:10.37,2013-03-15 13:30:00,
2013-03-15 06:35:00,51.7,37.4,30.08,NNW,338,1.0,2.3,58,0.00,CLR,,0.00,0.0,WeatherDisplay:10.37,2013-03-15 13:35:00,
2013-03-15 06:40:00,51.5,36.8,30.08,NNW,338,0.0,0.0,57,0.00,CLR,,0.00,0.0,WeatherDisplay:10.37,2013-03-15 13:40:00,
2013-03-15 06:45:00,51.5,36.8,30.08,NNW,338,0.0,0.0,57,0.00,CLR,,0.00,0.0,WeatherDisplay:10.37,2013-03-15 13:45:00,
2013-03-15 06:50:00,51.4,36.7,30.08,NNW,338,0.0,0.0,57,0.00,CLR,,0.00,0.0,WeatherDisplay:10.37,2013-03-15 13:50:00,
2013-03-15 06:55:00,51.2,36.9,30.08,NNE,26,0.2,1.0,58,0.00,CLR,,0.00,0.0,WeatherDisplay:10.37,2013-03-15 13:55:00,
2013-03-15 07:00:00,50.8,37.0,30.08,NE,42,1.2,2.3,59,0.00,CLR,,0.00,0.0,WeatherDisplay:10.37,2013-03-15 14:00:00,
2013-03-15 07:05:00,50.4,37.9,30.08,ESE,102,2.7,3.5,62,0.00,CLR,,0.00,0.0,WeatherDisplay:10.37,2013-03-15 14:05:00,
2013-03-15 07:10:00,50.1,41.1,30.08,East,94,3.1,3.5,71,0.00,CLR,,0.00,0.0,WeatherDisplay:10.37,2013-03-15 14:10:00,
2013-03-15 07:15:00,49.9,40.1,30.08,East,95,1.8,2.3,69,0.00,CLR,,0.00,5.0,WeatherDisplay:10.37,2013-03-15 14:15:00,
2013-03-15 07:20:00,49.8,40.0,30.09,South,170,1.6,3.0,69,0.00,CLR,,0.00,7.0,WeatherDisplay:10.37,2013-03-15 14:20:00,
2013-03-15 07:25:00,49.8,37.3,30.09,SSW,203,3.1,4.0,62,0.00,CLR,,0.00,7.0,WeatherDisplay:10.37,2013-03-15 14:25:00,
2013-03-15 07:30:00,50.1,37.6,30.09,SSW,212,3.0,3.5,62,0.00,CLR,,0.00,9.0,WeatherDisplay:10.37,2013-03-15 14:30:00,
2013-03-15 07:35:00,50.4,37.4,30.09,WNW,293,3.3,3.5,61,0.00,CLR,,0.00,18.0,WeatherDisplay:10.37,2013-03-15 14:35:00,
2013-03-15 07:40:00,50.5,39.6,30.09,NNW,343,2.7,3.5,66,0.00,CLR,,0.00,25.0,WeatherDisplay:10.37,2013-03-15 14:40:00,
2013-03-15 07:45:00,50.5,41.4,30.09,NNW,344,0.1,1.1,71,0.00,CLR,,0.00,32.0,WeatherDisplay:10.37,2013-03-15 14:45:00,
2013-03-15 07:50:00,50.3,42.0,30.09,NNW,343,0.9,2.3,73,0.00,CLR,,0.00,49.0,WeatherDisplay:10.37,2013-03-15 14:50:00,
2013-03-15 07:55:00,50.1,38.8,30.09,West,266,3.2,3.5,65,0.00,CLR,,0.00,54.0,WeatherDisplay:10.37,2013-03-15 14:55:00,
2013-03-15 08:00:00,50.4,41.7,30.09,NE,36,1.7,3.5,72,0.00,CLR,,0.00,54.0,WeatherDisplay:10.37,2013-03-15 15:00:00,
2013-03-15 08:05:00,50.5,41.8,30.09,NE,35,0.0,0.0,72,0.00,CLR,,0.00,65.0,WeatherDisplay:10.37,2013-03-15 15:05:00,
2013-03-15 08:10:00,50.6,41.2,30.09,NE,35,0.0,0.0,70,0.00,CLR,,0.00,74.0,WeatherDisplay:10.37,2013-03-15 15:10:00,
2013-03-15 08:15:00,50.7,40.9,30.10,NNW,347,1.3,2.3,69,0.00,CLR,,0.00,81.0,WeatherDisplay:10.37,2013-03-15 15:15:00,
2013-03-15 08:20:00,51.0,41.2,30.10,NW,308,1.1,2.3,69,0.00,CLR,,0.00,86.0,WeatherDisplay:10.37,2013-03-15 15:20:00,
2013-03-15 08:25:00,51.4,41.9,30.10,NW,307,0.6,2.0,70,0.00,CLR,,0.00,98.0,WeatherDisplay:10.37,2013-03-15 15:25:00,
2013-03-15 08:30:00,51.9,42.4,30.10,NW,307,0.0,0.0,70,0.00,CLR,,0.00,105.0,WeatherDisplay:10.37,2013-03-15 15:30:00,
2013-03-15 08:35:00,52.3,43.2,30.09,NW,305,1.8,2.3,71,0.00,CLR,,0.00,116.0,WeatherDisplay:10.37,2013-03-15 15:35:00,
2013-03-15 08:40:00,52.7,42.8,30.09,NNW,332,1.6,3.0,69,0.00,CLR,,0.00,123.0,WeatherDisplay:10.37,2013-03-15 15:40:00,
2013-03-15 08:45:00,53.3,45.2,30.09,NNE,12,2.0,3.0,74,0.00,CLR,,0.00,123.0,WeatherDisplay:10.37,2013-03-15 15:45:00,
2013-03-15 08:50:00,53.6,44.8,30.10,NNE,14,0.6,1.1,72,0.00,CLR,,0.00,128.0,WeatherDisplay:10.37,2013-03-15 15:50:00,
2013-03-15 08:55:00,54.0,44.8,30.10,NNE,14,0.2,1.1,71,0.00,CLR,,0.00,132.0,WeatherDisplay:10.37,2013-03-15 15:55:00,
2013-03-15 09:00:00,54.3,45.5,30.10,NNE,14,1.1,2.3,72,0.00,CLR,,0.00,116.0,WeatherDisplay:10.37,2013-03-15 16:00:00,
2013-03-15 09:05:00,54.5,45.3,30.10,NNE,14,0.6,2.3,71,0.00,CLR,,0.00,127.0,WeatherDisplay:10.37,2013-03-15 16:05:00,
2013-03-15 09:10:00,54.4,45.6,30.10,NE,41,1.4,2.3,72,0.00,CLR,,0.00,149.0,WeatherDisplay:10.37,2013-03-15 16:10:00,
2013-03-15 09:15:00,54.4,45.6,30.10,SE,134,3.7,4.0,72,0.00,CLR,,0.00,137.0,WeatherDisplay:10.37,2013-03-15 16:15:00,
2013-03-15 09:20:00,54.4,45.9,30.10,SSE,151,0.4,1.1,73,0.00,CLR,,0.00,149.0,WeatherDisplay:10.37,2013-03-15 16:20:00,
2013-03-15 09:25:00,54.5,46.7,30.10,SSE,151,0.5,1.1,75,0.00,CLR,,0.00,158.0,WeatherDisplay:10.37,2013-03-15 16:25:00,
2013-03-15 09:30:00,54.6,47.2,30.10,SSE,151,0.0,0.0,76,0.00,CLR,,0.00,178.0,WeatherDisplay:10.37,2013-03-15 16:30:00,
2013-03-15 09:35:00,54.9,47.1,30.10,SSE,151,0.0,0.0,75,0.00,CLR,,0.00,229.0,WeatherDisplay:10.37,2013-03-15 16:35:00,
2013-03-15 09:40:00,55.4,48.3,30.10,SSE,151,0.2,1.0,77,0.00,CLR,,0.00,241.0,WeatherDisplay:10.37,2013-03-15 16:40:00,
2013-03-15 09:45:00,56.1,48.6,30.10,ESE,118,1.1,2.3,76,0.00,CLR,,0.00,244.0,WeatherDisplay:10.37,2013-03-15 16:45:00,
2013-03-15 09:50:00,56.8,49.0,30.10,ESE,111,0.2,1.1,75,0.00,CLR,,0.00,443.0,WeatherDisplay:10.37,2013-03-15 16:50:00,
2013-03-15 09:55:00,57.7,49.8,30.10,ESE,112,0.0,0.0,75,0.00,CLR,,0.00,434.0,WeatherDisplay:10.37,2013-03-15 16:55:00,
2013-03-15 10:00:00,58.8,50.2,30.10,ESE,112,0.0,0.0,73,0.00,CLR,,0.00,357.0,WeatherDisplay:10.37,2013-03-15 17:00:00,
2013-03-15 10:05:00,59.6,50.2,30.10,NE,43,2.1,3.5,71,0.00,CLR,,0.00,292.0,WeatherDisplay:10.37,2013-03-15 17:05:00,
2013-03-15 10:10:00,60.2,50.4,30.10,NE,34,2.1,3.5,70,0.00,CLR,,0.00,220.0,WeatherDisplay:10.37,2013-03-15 17:10:00,
2013-03-15 10:15:00,60.7,50.5,30.11,NNE,33,0.2,1.1,69,0.00,CLR,,0.00,346.0,WeatherDisplay:10.37,2013-03-15 17:15:00,
2013-03-15 10:20:00,61.0,50.4,30.11,NNE,29,0.4,2.3,68,0.00,CLR,,0.00,188.0,WeatherDisplay:10.37,2013-03-15 17:20:00,
2013-03-15 10:25:00,61.2,50.6,30.11,NNE,30,0.8,2.3,68,0.00,CLR,,0.00,213.0,WeatherDisplay:10.37,2013-03-15 17:25:00,
2013-03-15 10:30:00,61.3,50.6,30.11,North,357,1.5,3.5,68,0.00,CLR,,0.00,244.0,WeatherDisplay:10.37,2013-03-15 17:30:00,
2013-03-15 10:35:00,61.3,50.6,30.11,North,355,1.8,3.5,68,0.00,CLR,,0.00,427.0,WeatherDisplay:10.37,2013-03-15 17:35:00,
2013-03-15 10:40:00,61.6,50.9,30.11,North,357,0.3,1.1,68,0.00,CLR,,0.00,531.0,WeatherDisplay:10.37,2013-03-15 17:40:00,
2013-03-15 10:45:00,61.7,50.6,30.11,North,357,0.3,2.3,67,0.00,CLR,,0.00,348.0,WeatherDisplay:10.37,2013-03-15 17:45:00,
2013-03-15 10:50:00,61.9,50.0,30.11,North,351,0.4,1.1,65,0.00,CLR,,0.00,461.0,WeatherDisplay:10.37,2013-03-15 17:50:00,
2013-03-15 10:55:00,62.6,51.1,30.11,North,352,0.9,2.3,66,0.00,CLR,,0.00,621.0,WeatherDisplay:10.37,2013-03-15 17:55:00,
2013-03-15 11:00:00,63.3,51.3,30.11,NNW,332,0.8,2.3,65,0.00,CLR,,0.00,475.0,WeatherDisplay:10.37,2013-03-15 18:00:00,
2013-03-15 11:05:00,63.9,51.1,30.11,NNW,345,2.6,4.0,63,0.00,CLR,,0.00,297.0,WeatherDisplay:10.37,2013-03-15 18:05:00,
2013-03-15 11:10:00,64.1,51.2,30.11,NW,322,2.5,3.5,63,0.00,CLR,,0.00,272.0,WeatherDisplay:10.37,2013-03-15 18:10:00,
2013-03-15 11:15:00,64.2,50.9,30.11,NNW,338,1.7,2.3,62,0.00,CLR,,0.00,406.0,WeatherDisplay:10.37,2013-03-15 18:15:00,
2013-03-15 11:20:00,64.4,50.2,30.11,NNW,328,1.8,3.5,60,0.00,CLR,,0.00,645.0,WeatherDisplay:10.37,2013-03-15 18:20:00,
2013-03-15 11:25:00,64.8,49.7,30.11,NNW,334,1.2,3.5,58,0.00,CLR,,0.00,457.0,WeatherDisplay:10.37,2013-03-15 18:25:00,
2013-03-15 11:30:00,65.2,49.1,30.11,NNW,334,0.7,2.3,56,0.00,CLR,,0.00,415.0,WeatherDisplay:10.37,2013-03-15 18:30:00,
2013-03-15 11:35:00,65.6,49.5,30.11,NW,320,2.1,3.5,56,0.00,CLR,,0.00,571.0,WeatherDisplay:10.37,2013-03-15 18:35:00,
2013-03-15 11:40:00,65.7,47.6,30.11,WNW,284,3.4,4.6,52,0.00,CLR,,0.00,469.0,WeatherDisplay:10.37,2013-03-15 18:40:00,
2013-03-15 11:45:00,65.7,47.6,30.11,West,272,0.5,1.1,52,0.00,CLR,,0.00,441.0,WeatherDisplay:10.37,2013-03-15 18:45:00,
2013-03-15 11:50:00,65.9,47.8,30.11,NW,324,2.9,4.6,52,0.00,CLR,,0.00,387.0,WeatherDisplay:10.37,2013-03-15 18:50:00,
2013-03-15 11:55:00,66.0,47.3,30.11,NW,324,1.0,2.0,51,0.00,CLR,,0.00,360.0,WeatherDisplay:10.37,2013-03-15 18:55:00,
2013-03-15 12:00:00,66.0,47.3,30.11,NW,324,0.2,1.1,51,0.00,CLR,,0.00,455.0,WeatherDisplay:10.37,2013-03-15 19:00:00,
2013-03-15 12:05:00,66.1,46.4,30.10,NW,306,0.8,2.3,49,0.00,CLR,,0.00,503.0,WeatherDisplay:10.37,2013-03-15 19:05:00,
2013-03-15 12:10:00,66.0,46.3,30.11,NW,307,2.0,3.0,49,0.00,CLR,,0.00,592.0,WeatherDisplay:10.37,2013-03-15 19:10:00,
2013-03-15 12:15:00,66.1,45.3,30.11,NW,322,2.0,4.6,47,0.00,CLR,,0.00,512.0,WeatherDisplay:10.37,2013-03-15 19:15:00,
2013-03-15 12:20:00,66.4,45.0,30.10,NW,306,4.2,6.9,46,0.00,CLR,,0.00,584.0,WeatherDisplay:10.37,2013-03-15 19:20:00,
2013-03-15 12:25:00,66.5,45.6,30.10,NW,304,1.8,3.5,47,0.00,CLR,,0.00,642.0,WeatherDisplay:10.37,2013-03-15 19:25:00,
2013-03-15 12:30:00,67.0,46.1,30.10,NW,320,1.4,3.5,47,0.00,CLR,,0.00,545.0,WeatherDisplay:10.37,2013-03-15 19:30:00,
2013-03-15 12:35:00,67.4,45.9,30.10,West,276,1.9,4.0,46,0.00,CLR,,0.00,374.0,WeatherDisplay:10.37,2013-03-15 19:35:00,
2013-03-15 12:40:00,67.5,47.1,30.10,NW,325,1.1,1.1,48,0.00,CLR,,0.00,427.0,WeatherDisplay:10.37,2013-03-15 19:40:00,
2013-03-15 12:45:00,67.9,46.9,30.10,NNW,339,1.5,4.0,47,0.00,CLR,,0.00,561.0,WeatherDisplay:10.37,2013-03-15 19:45:00,
2013-03-15 12:50:00,68.2,46.0,30.10,NNW,345,2.4,3.5,45,0.00,CLR,,0.00,635.0,WeatherDisplay:10.37,2013-03-15 19:50:00,
2013-03-15 12:55:00,68.7,46.5,30.09,NNW,343,0.8,2.3,45,0.00,CLR,,0.00,594.0,WeatherDisplay:10.37,2013-03-15 19:55:00,
2013-03-15 13:00:00,68.9,45.5,30.09,WNW,288,3.4,4.6,43,0.00,CLR,,0.00,545.0,WeatherDisplay:10.37,2013-03-15 20:00:00,
2013-03-15 13:05:00,69.1,45.0,30.09,NW,305,3.7,5.8,42,0.00,CLR,,0.00,570.0,WeatherDisplay:10.37,2013-03-15 20:05:00,
2013-03-15 13:10:00,69.2,45.1,30.09,NW,307,0.8,2.3,42,0.00,CLR,,0.00,555.0,WeatherDisplay:10.37,2013-03-15 20:10:00,
2013-03-15 13:15:00,69.5,45.4,30.09,NNW,332,1.8,3.5,42,0.00,CLR,,0.00,591.0,WeatherDisplay:10.37,2013-03-15 20:15:00,
2013-03-15 13:20:00,69.8,46.3,30.09,NNW,345,0.6,3.5,43,0.00,CLR,,0.00,503.0,WeatherDisplay:10.37,2013-03-15 20:20:00,
2013-03-15 13:25:00,70.1,46.6,30.09,NW,326,1.4,3.5,43,0.00,CLR,,0.00,592.0,WeatherDisplay:10.37,2013-03-15 20:25:00,
2013-03-15 13:30:00,70.3,47.3,30.09,NW,323,0.2,2.0,44,0.00,CLR,,0.00,599.0,WeatherDisplay:10.37,2013-03-15 20:30:00,
2013-03-15 13:35:00,70.5,46.9,30.09,NW,320,1.2,3.5,43,0.00,CLR,,0.00,359.0,WeatherDisplay:10.37,2013-03-15 20:35:00,
2013-03-15 13:40:00,70.5,46.3,30.08,NW,323,2.1,3.5,42,0.00,CLR,,0.00,371.0,WeatherDisplay:10.37,2013-03-15 20:40:00,
2013-03-15 13:45:00,70.6,46.4,30.08,NW,324,2.1,3.5,42,0.00,CLR,,0.00,554.0,WeatherDisplay:10.37,2013-03-15 20:45:00,
2013-03-15 13:50:00,70.6,47.0,30.08,NNW,330,1.8,3.5,43,0.00,CLR,,0.00,503.0,WeatherDisplay:10.37,2013-03-15 20:50:00,
2013-03-15 13:55:00,71.0,48.0,30.08,WNW,297,3.0,4.6,44,0.00,CLR,,0.00,455.0,WeatherDisplay:10.37,2013-03-15 20:55:00,
2013-03-15 14:00:00,71.0,48.0,30.07,NNW,341,2.3,5.0,44,0.00,CLR,,0.00,499.0,WeatherDisplay:10.37,2013-03-15 21:00:00,
2013-03-15 14:05:00,71.2,48.2,30.07,WNW,298,2.8,3.5,44,0.00,CLR,,0.00,601.0,WeatherDisplay:10.37,2013-03-15 21:05:00,
2013-03-15 14:10:00,71.6,49.1,30.07,WNW,298,3.7,5.0,45,0.00,CLR,,0.00,570.0,WeatherDisplay:10.37,2013-03-15 21:10:00,
2013-03-15 14:15:00,71.9,48.8,30.07,WNW,293,3.6,5.0,44,0.00,CLR,,0.00,577.0,WeatherDisplay:10.37,2013-03-15 21:15:00,
2013-03-15 14:20:00,71.9,49.4,30.07,WNW,291,3.7,4.6,45,0.00,CLR,,0.00,628.0,WeatherDisplay:10.37,2013-03-15 21:20:00,
2013-03-15 14:25:00,72.3,49.8,30.07,NW,314,2.0,3.5,45,0.00,CLR,,0.00,533.0,WeatherDisplay:10.37,2013-03-15 21:25:00,
2013-03-15 14:30:00,72.8,50.2,30.07,NW,326,4.4,4.6,45,0.00,CLR,,0.00,654.0,WeatherDisplay:10.37,2013-03-15 21:30:00,
2013-03-15 14:35:00,73.3,50.1,30.07,WNW,293,3.2,4.6,44,0.00,CLR,,0.00,540.0,WeatherDisplay:10.37,2013-03-15 21:35:00,
2013-03-15 14:40:00,73.6,50.3,30.07,WNW,302,3.7,4.6,44,0.00,CLR,,0.00,448.0,WeatherDisplay:10.37,2013-03-15 21:40:00,
2013-03-15 14:45:00,73.8,50.5,30.07,NW,323,3.7,5.0,44,0.00,CLR,,0.00,425.0,WeatherDisplay:10.37,2013-03-15 21:45:00,
2013-03-15 14:50:00,74.0,50.1,30.07,NW,311,2.6,4.6,43,0.00,CLR,,0.00,403.0,WeatherDisplay:10.37,2013-03-15 21:50:00,
2013-03-15 14:55:00,73.9,50.6,30.07,NW,323,4.4,4.6,44,0.00,CLR,,0.00,299.0,WeatherDisplay:10.37,2013-03-15 21:55:00,
2013-03-15 15:00:00,73.9,50.6,30.07,NW,325,2.3,4.6,44,0.00,CLR,,0.00,320.0,WeatherDisplay:10.37,2013-03-15 22:00:00,
2013-03-15 15:05:00,73.8,51.1,30.07,NW,317,3.0,5.0,45,0.00,CLR,,0.00,338.0,WeatherDisplay:10.37,2013-03-15 22:05:00,
2013-03-15 15:10:00,73.5,50.2,30.07,NW,311,3.1,6.9,44,0.00,CLR,,0.00,359.0,WeatherDisplay:10.37,2013-03-15 22:10:00,
2013-03-15 15:15:00,73.4,50.2,30.06,NW,322,2.3,5.8,44,0.00,CLR,,0.00,336.0,WeatherDisplay:10.37,2013-03-15 22:15:00,
2013-03-15 15:20:00,73.2,50.0,30.06,NW,320,1.4,3.5,44,0.00,CLR,,0.00,387.0,WeatherDisplay:10.37,2013-03-15 22:20:00,
2013-03-15 15:25:00,73.2,50.6,30.06,NNW,338,1.6,4.6,45,0.00,CLR,,0.00,348.0,WeatherDisplay:10.37,2013-03-15 22:25:00,
2013-03-15 15:30:00,73.2,50.0,30.06,NW,324,2.1,3.5,44,0.00,CLR,,0.00,406.0,WeatherDisplay:10.37,2013-03-15 22:30:00,
2013-03-15 15:35:00,73.2,50.6,30.06,NW,316,2.9,7.0,45,0.00,CLR,,0.00,545.0,WeatherDisplay:10.37,2013-03-15 22:35:00,
2013-03-15 15:40:00,73.3,50.1,30.06,NNW,331,2.2,5.8,44,0.00,CLR,,0.00,543.0,WeatherDisplay:10.37,2013-03-15 22:40:00,
2013-03-15 15:45:00,73.5,49.6,30.06,NNW,328,2.4,2.4,43,0.00,CLR,,0.00,564.0,WeatherDisplay:10.37,2013-03-15 22:45:00,
2013-03-15 15:50:00,73.8,49.3,30.06,NW,326,1.8,3.5,42,0.00,CLR,,0.00,557.0,WeatherDisplay:10.37,2013-03-15 22:50:00,
2013-03-15 15:55:00,74.0,49.4,30.06,NNW,348,3.3,3.3,42,0.00,CLR,,0.00,436.0,WeatherDisplay:10.37,2013-03-15 22:55:00,
2013-03-15 16:00:00,74.2,49.6,30.06,NW,320,1.9,3.5,42,0.00,CLR,,0.00,559.0,WeatherDisplay:10.37,2013-03-15 23:00:00,
2013-03-15 16:05:00,74.2,47.6,30.06,NNE,22,1.7,5.8,39,0.00,CLR,,0.00,490.0,WeatherDisplay:10.37,2013-03-15 23:05:00,
2013-03-15 16:10:00,74.0,48.1,30.06,North,354,3.2,4.6,40,0.00,CLR,,0.00,406.0,WeatherDisplay:10.37,2013-03-15 23:10:00,
2013-03-15 16:15:00,73.8,48.0,30.06,NNW,327,3.4,4.6,40,0.00,CLR,,0.00,404.0,WeatherDisplay:10.37,2013-03-15 23:15:00,
2013-03-15 16:20:00,73.7,47.9,30.06,NNW,341,1.0,2.3,40,0.00,CLR,,0.00,406.0,WeatherDisplay:10.37,2013-03-15 23:20:00,
2013-03-15 16:25:00,73.7,48.5,30.06,NNW,347,1.3,3.5,41,0.00,CLR,,0.00,346.0,WeatherDisplay:10.37,2013-03-15 23:25:00,
2013-03-15 16:30:00,73.6,49.1,30.06,NNW,330,0.9,3.5,42,0.00,CLR,,0.00,376.0,WeatherDisplay:10.37,2013-03-15 23:30:00,
2013-03-15 16:35:00,73.5,49.0,30.06,NW,309,2.7,4.0,42,0.00,CLR,,0.00,299.0,WeatherDisplay:10.37,2013-03-15 23:35:00,
2013-03-15 16:40:00,73.2,49.4,30.06,NW,307,2.1,3.5,43,0.00,CLR,,0.00,313.0,WeatherDisplay:10.37,2013-03-15 23:40:00,
2013-03-15 16:45:00,72.8,49.6,30.06,WNW,294,3.6,5.0,44,0.00,CLR,,0.00,348.0,WeatherDisplay:10.37,2013-03-15 23:45:00,
2013-03-15 16:50:00,72.6,50.0,30.06,NW,305,2.9,4.6,45,0.00,CLR,,0.00,367.0,WeatherDisplay:10.37,2013-03-15 23:50:00,
2013-03-15 16:55:00,72.2,49.7,30.06,WNW,291,2.9,3.5,45,0.00,CLR,,0.00,345.0,WeatherDisplay:10.37,2013-03-15 23:55:00,
2013-03-15 17:00:00,72.0,50.1,30.06,NW,306,1.9,3.5,46,0.00,CLR,,0.00,232.0,WeatherDisplay:10.37,2013-03-16 00:00:00,
2013-03-15 17:05:00,71.8,50.5,30.06,WNW,297,4.1,5.8,47,0.00,CLR,,0.00,193.0,WeatherDisplay:10.37,2013-03-16 00:05:00,
2013-03-15 17:10:00,71.5,50.8,30.06,WNW,291,3.4,4.6,48,0.00,CLR,,0.00,204.0,WeatherDisplay:10.37,2013-03-16 00:10:00,
2013-03-15 17:15:00,71.1,50.4,30.06,WNW,292,3.8,4.6,48,0.00,CLR,,0.00,193.0,WeatherDisplay:10.37,2013-03-16 00:15:00,
2013-03-15 17:20:00,70.8,51.2,30.06,WNW,292,2.6,3.5,50,0.00,CLR,,0.00,199.0,WeatherDisplay:10.37,2013-03-16 00:20:00,
2013-03-15 17:25:00,70.7,51.1,30.06,WNW,293,0.2,1.1,50,0.00,CLR,,0.00,206.0,WeatherDisplay:10.37,2013-03-16 00:25:00,
2013-03-15 17:30:00,70.7,51.7,30.06,WNW,293,0.5,1.1,51,0.00,CLR,,0.00,207.0,WeatherDisplay:10.37,2013-03-16 00:30:00,
2013-03-15 17:35:00,70.7,51.1,30.06,WNW,303,1.4,2.3,50,0.00,CLR,,0.00,186.0,WeatherDisplay:10.37,2013-03-16 00:35:00,
2013-03-15 17:40:00,70.6,51.1,30.06,NW,306,1.4,3.5,50,0.00,CLR,,0.00,158.0,WeatherDisplay:10.37,2013-03-16 00:40:00,
2013-03-15 17:45:00,70.5,49.9,30.06,NW,321,1.3,3.5,48,0.00,CLR,,0.00,151.0,WeatherDisplay:10.37,2013-03-16 00:45:00,
2013-03-15 17:50:00,70.3,49.1,30.06,NW,326,0.9,2.3,47,0.00,CLR,,0.00,142.0,WeatherDisplay:10.37,2013-03-16 00:50:00,
2013-03-15 17:55:00,70.1,49.5,30.06,North,5,2.0,3.5,48,0.00,CLR,,0.00,153.0,WeatherDisplay:10.37,2013-03-16 00:55:00,
2013-03-15 18:00:00,69.9,49.9,30.06,NNE,13,1.3,2.3,49,0.00,CLR,,0.00,163.0,WeatherDisplay:10.37,2013-03-16 01:00:00,
2013-03-15 18:05:00,69.7,49.1,30.06,NNW,337,1.7,3.5,48,0.00,CLR,,0.00,137.0,WeatherDisplay:10.37,2013-03-16 01:05:00,
2013-03-15 18:10:00,69.5,47.8,30.05,NW,322,1.7,4.0,46,0.00,CLR,,0.00,109.0,WeatherDisplay:10.37,2013-03-16 01:10:00,
2013-03-15 18:15:00,69.2,48.7,30.06,North,349,0.1,1.1,48,0.00,CLR,,0.00,88.0,WeatherDisplay:10.37,2013-03-16 01:15:00,
2013-03-15 18:20:00,68.8,48.3,30.06,NNW,332,1.6,3.5,48,0.00,CLR,,0.00,70.0,WeatherDisplay:10.37,2013-03-16 01:20:00,
2013-03-15 18:25:00,68.4,47.9,30.06,North,353,1.7,2.3,48,0.00,CLR,,0.00,58.0,WeatherDisplay:10.37,2013-03-16 01:25:00,
2013-03-15 18:30:00,67.9,48.0,30.05,North,358,1.6,3.5,49,0.00,CLR,,0.00,53.0,WeatherDisplay:10.37,2013-03-16 01:30:00,
2013-03-15 18:35:00,67.4,47.6,30.05,NNW,340,1.7,3.5,49,0.00,CLR,,0.00,46.0,WeatherDisplay:10.37,2013-03-16 01:35:00,
2013-03-15 18:40:00,66.8,47.0,30.05,NNW,335,1.6,3.5,49,0.00,CLR,,0.00,51.0,WeatherDisplay:10.37,2013-03-16 01:40:00,
2013-03-15 18:45:00,66.3,47.6,30.05,NNW,335,0.0,0.0,51,0.00,CLR,,0.00,42.0,WeatherDisplay:10.37,2013-03-16 01:45:00,
2013-03-15 18:50:00,65.8,47.2,30.05,NNW,335,0.0,1.1,51,0.00,CLR,,0.00,33.0,WeatherDisplay:10.37,2013-03-16 01:50:00,
2013-03-15 18:55:00,65.5,46.9,30.05,NNW,336,0.1,0.0,51,0.00,CLR,,0.00,32.0,WeatherDisplay:10.37,2013-03-16 01:55:00,
2013-03-15 19:00:00,65.0,46.4,30.05,NNW,330,1.2,2.0,51,0.00,CLR,,0.00,25.0,WeatherDisplay:10.37,2013-03-16 02:00:00,
2013-03-15 19:05:00,64.7,46.1,30.05,NNW,330,1.9,3.5,51,0.00,CLR,,0.00,16.0,WeatherDisplay:10.37,2013-03-16 02:05:00,
2013-03-15 19:10:00,64.1,45.6,30.05,WNW,303,3.1,5.8,51,0.00,CLR,,0.00,11.0,WeatherDisplay:10.37,2013-03-16 02:10:00,
2013-03-15 19:15:00,63.6,46.1,30.05,WNW,296,1.2,3.5,53,0.00,CLR,,0.00,5.0,WeatherDisplay:10.37,2013-03-16 02:15:00,
2013-03-15 19:20:00,63.1,45.7,30.05,WSW,246,1.1,2.3,53,0.00,CLR,,0.00,0.0,WeatherDisplay:10.37,2013-03-16 02:20:00,
2013-03-15 19:25:00,62.7,45.8,30.05,WSW,247,0.9,3.5,54,0.00,CLR,,0.00,0.0,WeatherDisplay:10.37,2013-03-16 02:25:00,
2013-03-15 19:30:00,62.3,45.4,30.05,WSW,246,1.5,2.3,54,0.00,CLR,,0.00,0.0,WeatherDisplay:10.37,2013-03-16 02:30:00,
2013-03-15 19:35:00,62.0,45.6,30.05,WSW,247,1.2,2.3,55,0.00,CLR,,0.00,0.0,WeatherDisplay:10.37,2013-03-16 02:35:00,
2013-03-15 19:40:00,61.6,45.3,30.05,WSW,247,1.0,2.3,55,0.00,CLR,,0.00,0.0,WeatherDisplay:10.37,2013-03-16 02:40:00,
2013-03-15 19:45:00,61.3,45.5,30.04,WSW,247,1.8,2.3,56,0.00,CLR,,0.00,0.0,WeatherDisplay:10.37,2013-03-16 02:45:00,
2013-03-15 19:50:00,61.0,45.7,30.05,WSW,247,0.8,2.3,57,0.00,CLR,,0.00,0.0,WeatherDisplay:10.37,2013-03-16 02:50:00,
2013-03-15 19:55:00,60.7,45.8,30.04,WSW,246,0.0,0.0,58,0.00,CLR,,0.00,0.0,WeatherDisplay:10.37,2013-03-16 02:55:00,
2013-03-15 20:00:00,60.5,45.6,30.04,WSW,247,0.0,0.0,58,0.00,CLR,,0.00,0.0,WeatherDisplay:10.37,2013-03-16 03:00:00,
2013-03-15 20:05:00,60.2,45.8,30.04,WSW,246,0.0,0.0,59,0.00,CLR,,0.00,0.0,WeatherDisplay:10.37,2013-03-16 03:05:00,
2013-03-15 20:10:00,59.9,45.5,30.04,WSW,247,0.0,0.0,59,0.00,CLR,,0.00,0.0,WeatherDisplay:10.37,2013-03-16 03:10:00,
2013-03-15 20:15:00,59.7,45.3,30.04,WSW,247,0.0,0.0,59,0.00,CLR,,0.00,0.0,WeatherDisplay:10.37,2013-03-16 03:15:00,
2013-03-15 20:20:00,59.3,46.3,30.04,SE,130,4.3,5.0,62,0.00,CLR,,0.00,0.0,WeatherDisplay:10.37,2013-03-16 03:20:00,
2013-03-15 20:25:00,58.9,48.7,30.05,SE,135,4.6,5.0,69,0.00,CLR,,0.00,0.0,WeatherDisplay:10.37,2013-03-16 03:25:00,
2013-03-15 20:30:00,58.4,48.3,30.04,ESE,115,4.7,5.0,69,0.00,CLR,,0.00,0.0,WeatherDisplay:10.37,2013-03-16 03:30:00,
2013-03-15 20:35:00,58.0,47.9,30.05,ESE,110,0.4,2.3,69,0.00,CLR,,0.00,0.0,WeatherDisplay:10.37,2013-03-16 03:35:00,
2013-03-15 20:40:00,57.7,46.8,30.05,SE,128,2.1,3.5,67,0.00,CLR,,0.00,0.0,WeatherDisplay:10.37,2013-03-16 03:40:00,
2013-03-15 20:45:00,57.6,48.3,30.05,ESE,123,2.4,3.5,71,0.00,CLR,,0.00,0.0,WeatherDisplay:10.37,2013-03-16 03:45:00,
2013-03-15 20:50:00,57.3,46.8,30.04,SE,139,2.8,3.5,68,0.00,CLR,,0.00,0.0,WeatherDisplay:10.37,2013-03-16 03:50:00,
2013-03-15 20:55:00,57.1,45.8,30.04,SE,139,1.1,2.3,66,0.00,CLR,,0.00,0.0,WeatherDisplay:10.37,2013-03-16 03:55:00,
2013-03-15 21:00:00,57.2,45.5,30.04,SE,139,0.1,1.1,65,0.00,CLR,,0.00,0.0,WeatherDisplay:10.37,2013-03-16 04:00:00,
2013-03-15 21:05:00,57.4,44.9,30.04,SE,140,1.2,2.0,63,0.00,CLR,,0.00,0.0,WeatherDisplay:10.37,2013-03-16 04:05:00,
2013-03-15 21:10:00,57.5,44.6,30.04,SW,222,2.3,3.5,62,0.00,CLR,,0.00,0.0,WeatherDisplay:10.37,2013-03-16 04:10:00,
2013-03-15 21:15:00,57.5,45.0,30.04,SW,222,1.8,3.5,63,0.00,CLR,,0.00,0.0,WeatherDisplay:10.37,2013-03-16 04:15:00,
2013-03-15 21:20:00,57.4,45.3,30.04,SW,226,2.1,3.5,64,0.00,CLR,,0.00,0.0,WeatherDisplay:10.37,2013-03-16 04:20:00,
2013-03-15 21:25:00,57.3,44.8,30.04,NNE,33,2.4,3.5,63,0.00,CLR,,0.00,0.0,WeatherDisplay:10.37,2013-03-16 04:25:00,
2013-03-15 21:30:00,57.1,45.4,30.05,NNE,21,0.8,2.3,65,0.00,CLR,,0.00,0.0,WeatherDisplay:10.37,2013-03-16 04:30:00,
2013-03-15 21:35:00,56.9,43.2,30.05,WSW,257,5.3,9.0,60,0.00,CLR,,0.00,0.0,WeatherDisplay:10.37,2013-03-16 04:35:00,
2013-03-15 21:40:00,57.7,41.2,30.05,West,259,10.2,13.0,54,0.00,CLR,,0.00,0.0,WeatherDisplay:10.37,2013-03-16 04:40:00,
2013-03-15 21:45:00,59.1,41.0,30.05,West,268,10.1,11.5,51,0.00,CLR,,0.00,0.0,WeatherDisplay:10.37,2013-03-16 04:45:00,
2013-03-15 21:50:00,60.2,40.4,30.05,West,268,9.5,12.7,48,0.00,CLR,,0.00,0.0,WeatherDisplay:10.37,2013-03-16 04:50:00,
2013-03-15 21:55:00,60.9,40.5,30.05,NNE,20,4.9,8.1,47,0.00,CLR,,0.00,0.0,WeatherDisplay:10.37,2013-03-16 04:55:00,
2013-03-15 22:00:00,60.4,47.7,30.06,North,358,2.2,3.5,63,0.00,CLR,,0.00,0.0,WeatherDisplay:10.37,2013-03-16 05:00:00,
2013-03-15 22:05:00,59.3,47.1,30.06,NNW,347,1.9,3.5,64,0.00,CLR,,0.00,0.0,WeatherDisplay:10.37,2013-03-16 05:05:00,
2013-03-15 22:10:00,58.4,47.1,30.06,NW,326,2.8,4.6,66,0.00,CLR,,0.00,0.0,WeatherDisplay:10.37,2013-03-16 05:10:00,
2013-03-15 22:15:00,57.6,47.5,30.06,NNE,20,1.8,3.5,69,0.00,CLR,,0.00,0.0,WeatherDisplay:10.37,2013-03-16 05:15:00,
2013-03-15 22:20:00,56.9,47.6,30.06,NNE,21,0.1,1.0,71,0.00,CLR,,0.00,0.0,WeatherDisplay:10.37,2013-03-16 05:20:00,
2013-03-15 22:25:00,56.0,47.8,30.07,NNE,20,0.2,2.3,74,0.00,CLR,,0.00,0.0,WeatherDisplay:10.37,2013-03-16 05:25:00,
2013-03-15 22:30:00,55.2,47.8,30.07,East,86,2.4,3.5,76,0.00,CLR,,0.00,0.0,WeatherDisplay:10.37,2013-03-16 05:30:00,
2013-03-15 22:35:00,54.4,48.0,30.07,SE,128,3.6,3.6,79,0.00,CLR,,0.00,0.0,WeatherDisplay:10.37,2013-03-16 05:35:00,
2013-03-15 22:40:00,53.9,47.9,30.06,SSE,156,3.2,3.5,80,0.00,CLR,,0.00,0.0,WeatherDisplay:10.37,2013-03-16 05:40:00,
2013-03-15 22:45:00,53.5,47.5,30.07,SE,143,4.5,5.0,80,0.00,CLR,,0.00,0.0,WeatherDisplay:10.37,2013-03-16 05:45:00,
2013-03-15 22:50:00,53.1,47.4,30.07,SE,136,3.5,4.6,81,0.00,CLR,,0.00,0.0,WeatherDisplay:10.37,2013-03-16 05:50:00,
2013-03-15 22:55:00,53.0,47.7,30.07,SE,126,1.9,3.5,82,0.00,CLR,,0.00,0.0,WeatherDisplay:10.37,2013-03-16 05:55:00,
2013-03-15 23:00:00,52.8,48.4,30.06,ESE,119,5.9,6.0,85,0.00,CLR,,0.00,0.0,WeatherDisplay:10.37,2013-03-16 06:00:00,
2013-03-15 23:05:00,52.5,48.4,30.06,ESE,121,5.4,6.9,86,0.00,CLR,,0.00,0.0,WeatherDisplay:10.37,2013-03-16 06:05:00,
2013-03-15 23:10:00,52.3,47.9,30.06,SE,125,3.1,4.0,85,0.00,CLR,,0.00,0.0,WeatherDisplay:10.37,2013-03-16 06:10:00,
2013-03-15 23:15:00,52.3,47.3,30.06,SE,126,0.0,0.0,83,0.00,CLR,,0.00,0.0,WeatherDisplay:10.37,2013-03-16 06:15:00,
2013-03-15 23:20:00,52.4,46.7,30.06,SE,125,1.3,2.3,81,0.00,CLR,,0.00,0.0,WeatherDisplay:10.37,2013-03-16 06:20:00,
2013-03-15 23:25:00,52.4,46.4,30.06,SE,125,1.3,2.3,80,0.00,CLR,,0.00,0.0,WeatherDisplay:10.37,2013-03-16 06:25:00,
2013-03-15 23:30:00,52.5,46.5,30.06,SE,126,1.8,3.5,80,0.00,CLR,,0.00,0.0,WeatherDisplay:10.37,2013-03-16 06:30:00,
2013-03-15 23:35:00,52.4,46.1,30.06,SE,125,0.9,2.3,79,0.00,CLR,,0.00,0.0,WeatherDisplay:10.37,2013-03-16 06:35:00,
2013-03-15 23:46:00,52.0,45.4,30.06,SE,125,1.2,3.0,78,0.00,CLR,,0.00,0.0,WeatherDisplay:10.37,2013-03-16 06:46:00,
2013-03-15 23:51:00,51.8,45.2,30.07,NNW,334,1.0,3.5,78,0.00,CLR,,0.00,0.0,WeatherDisplay:10.37,2013-03-16 06:51:00,
2013-03-15 23:57:00,51.6,45.3,30.07,NNW,334,0.8,2.3,79,0.00,CLR,,0.00,0.0,WeatherDisplay:10.37,2013-03-16 06:57:00,